Location: *
(51.8167°N, 12.5000°E)
Time: 18:30:37
(UTC+00:00)

FREGAT/IRIS - Pass Details

Date: 16 September 2019
Orbit: 346 x 350 km, 97.0° (Epoch: 22 October)

Event Time Altitude Azimuth Distance (km) Brightness Sun altitude
Rises 17:52:30 0° 149° (SSE) 2,163 6.0 -5.3°
Reaches altitude 10° 17:54:29 10° 141° (SE) 1,326 4.8 -5.6°
Maximum altitude 17:57:08 37° 71° (ENE) 571 3.0 -6.0°
Drops below altitude 10° 17:59:48 10° 2° (N) 1,343 5.5 -6.4°
Sets 18:01:49 0° 354° (N) 2,195 6.7 -6.7°
